Selinsgrove, PA

2:38 AM EDT on September 29, 2016 (GMT -0400)
Penn Valley

Weather History for KSEG - July, 2013

Change the Weather History Date:

Monday, July 29, 2013

  Actual Average (KIPT) Record (KIPT)
Temperature  
Mean Temperature 66 °F 73 °F  
Max Temperature 79 °F 84 °F 98 °F (1949)
Min Temperature 53 °F 62 °F 49 °F (1965)
Degree Days  
Heating Degree Days 0 0  
Month to date heating degree days 0  
Since 1 June heating degree days 37  
Since 1 July heating degree days 0  
Cooling Degree Days 0 8  
Month to date cooling degree days 229  
Year to date cooling degree days 418  
Since 1 June cooling degree days 375  
Growing Degree Days 16 (Base 50)    
Moisture  
Dew Point 56 °F    
Average Humidity 81    
Maximum Humidity 100    
Minimum Humidity 40    
Precipitation  
Precipitation 0.00 in 0.15 in 2.05 in (1949)
Month to date precipitation 4.05  
Year to date precipitation 22.88  
Sea Level Pressure  
Sea Level Pressure 30.07 in    
Wind  
Wind Speed 1 mph (WNW)    
Max Wind Speed 8 mph    
Max Gust Speed -    
Visibility 6 miles    
Events      
T = Trace of Precipitation, MM = Missing Value Source: NWS Daily Summary

Daily Weather History Graph

Daily Weather History Graph

Search for Another Location

Airport or City:

Trip Planner

Search our weather history database for the weather conditions in past years. The results will help you decide how hot, cold, wet, or windy it might be!

Date:

Astronomy

Jul. 29, 2013 Rise Set
Actual Time 6:01 AM EDT 8:26 PM EDT
Civil Twilight 5:30 AM EDT 8:56 PM EDT
Nautical Twilight 4:51 AM EDT 9:35 PM EDT
Astronomical Twilight 4:08 AM EDT 10:17 PM EDT
Moon No Moon Rise 1:44 PM EDT
Length of Visible Light 15h 26m
Length of Day
14h 24m
Waning Gibbous, 51% of the Moon is Illuminated
Jul 29
Waning Gibbous
Jul 29
Last Quarter
Aug 6
New
Aug 14
First Quarter
Aug 20
Full

Hourly Weather History & Observations

Time (EDT) Temp. Dew Point Humidity Pressure Visibility Wind Dir Wind Speed Gust Speed Precip Events Conditions
12:53 AM 61.0 °F 60.1 °F 97% 30.00 in 4.0 mi Calm Calm - N/A   Clear
1:53 AM 60.1 °F 57.9 °F 93% 30.01 in 3.0 mi Calm Calm - N/A   Clear
2:04 AM 59.0 °F 57.2 °F 94% 30.01 in 2.5 mi Calm Calm - N/A   Clear
2:13 AM 60.8 °F 57.2 °F 88% 30.02 in 3.0 mi Calm Calm - N/A   Clear
2:36 AM 59.0 °F 57.2 °F 94% 30.02 in 2.5 mi Calm Calm - N/A   Clear
2:49 AM 59.0 °F 57.2 °F 94% 30.02 in 3.0 mi Calm Calm - N/A   Clear
2:53 AM 59.0 °F 57.0 °F 93% 30.02 in 3.0 mi Calm Calm - N/A   Clear
3:02 AM 57.2 °F 57.2 °F 100% 30.03 in 2.5 mi Calm Calm - N/A   Clear
3:12 AM 57.2 °F 55.4 °F 94% 30.03 in 3.0 mi Calm Calm - N/A   Clear
3:44 AM 57.2 °F 55.4 °F 94% 30.03 in 2.5 mi Calm Calm - N/A   Clear
3:53 AM 57.0 °F 55.0 °F 93% 30.03 in 2.5 mi Calm Calm - N/A   Clear
4:09 AM 57.2 °F 55.4 °F 94% 30.04 in 4.0 mi Calm Calm - N/A   Clear
4:53 AM 55.0 °F 54.0 °F 96% 30.04 in 2.5 mi Calm Calm - N/A   Clear
5:06 AM 55.4 °F 53.6 °F 94% 30.05 in 1.5 mi Calm Calm - N/A   Partly Cloudy
5:19 AM 55.4 °F 53.6 °F 94% 30.05 in 3.0 mi Calm Calm - N/A   Clear
5:53 AM 54.0 °F 53.1 °F 97% 30.05 in 3.0 mi Calm Calm - N/A   Clear
6:06 AM 53.6 °F 53.6 °F 100% 30.06 in 2.0 mi Calm Calm - N/A   Clear
6:29 AM 53.6 °F 53.6 °F 100% 30.07 in 1.8 mi Calm Calm - N/A   Clear
6:37 AM 55.4 °F 55.4 °F 100% 30.07 in 2.0 mi Calm Calm - N/A   Clear
6:53 AM 55.9 °F 55.0 °F 97% 30.06 in 3.0 mi Calm Calm - N/A   Partly Cloudy
7:53 AM 62.1 °F 59.0 °F 90% 30.08 in 7.0 mi Calm Calm - N/A   Clear
8:53 AM 66.9 °F 57.9 °F 73% 30.09 in 10.0 mi Calm Calm - N/A   Clear
9:53 AM 72.0 °F 55.9 °F 57% 30.08 in 10.0 mi Variable 3.5 mph - N/A   Clear
10:53 AM 73.9 °F 55.0 °F 52% 30.09 in 10.0 mi Calm Calm - N/A   Clear
11:53 AM 75.9 °F 55.9 °F 50% 30.09 in 10.0 mi Calm Calm - N/A   Partly Cloudy
12:53 PM 75.0 °F 55.0 °F 50% 30.09 in 10.0 mi Variable 5.8 mph - N/A   Mostly Cloudy
1:53 PM 77.0 °F 55.9 °F 48% 30.09 in 10.0 mi NW 6.9 mph - N/A   Scattered Clouds
2:53 PM 75.9 °F 55.0 °F 48% 30.09 in 10.0 mi Variable 3.5 mph - N/A   Scattered Clouds
3:53 PM 78.1 °F 52.0 °F 40% 30.09 in 10.0 mi WNW 8.1 mph - N/A   Clear
4:53 PM 77.0 °F 55.0 °F 47% 30.09 in 10.0 mi WNW 6.9 mph - N/A   Scattered Clouds
5:53 PM 75.0 °F 54.0 °F 48% 30.09 in 10.0 mi Variable 3.5 mph - N/A   Partly Cloudy
6:53 PM 73.9 °F 54.0 °F 50% 30.09 in 10.0 mi West 3.5 mph - N/A   Partly Cloudy
7:53 PM 66.9 °F 62.1 °F 84% 30.11 in 10.0 mi Calm Calm - N/A   Clear
8:53 PM 64.0 °F 60.1 °F 87% 30.13 in 10.0 mi Calm Calm - N/A   Mostly Cloudy
9:53 PM 62.1 °F 57.9 °F 86% 30.14 in 10.0 mi NW 3.5 mph - N/A   Clear
10:53 PM 60.1 °F 57.0 °F 90% 30.15 in 10.0 mi Calm Calm - N/A   Clear
11:53 PM 59.0 °F 57.0 °F 93% 30.16 in 10.0 mi Calm Calm - N/A   Clear